Regional Weather Roundup
Issued by NWS Charleston, SC

Current Version | Previous Version | Text Only | Print | Product List | Glossary Off
Versions: 1 2 3 4 5 6 7 8 9 10 11 12 13 14 15 16 17 18 19 20 21 22 23 24 25 26 27 28 29 30 31 32 33 34 35 36 37 38 39 40 41 42 43 44 45 46 47 48 49 50
000 ASUS42 KCHS 050911 RWRCHS REGIONAL WEATHER ROUNDUP NATIONAL WEATHER SERVICE CHARLESTON SC 400 AM EST THU MAR 05 2015 NOTE: "FAIR" INDICATES FEW OR NO CLOUDS BELOW 12,000 FEET WITH NO SIGNIFICANT WEATHER AND/OR OBSTRUCTIONS TO VISIBILITY. NOT ALL STATIONS ARE QUALITY CONTROLLED BY THE NATIONAL WEATHER SERVICE. USE DATA WITH CAUTION...ESPECIALLY DEWPOINT OBSERVATIONS. SCZ027-030-031-034>040-042>050-051000- ...SOUTHEAST SOUTH CAROLINA... CITY SKY/WX TMP DP RH WIND PRES REMARKS N CHARLESTON PTCLDY 61 59 93 S13 29.98F WATERFRONT PRK N/A 61 N/A N/A SW10 N/A MOUNT PLEASANT FAIR 63 61 94 S7 29.99S PINOPOLIS NOT AVBL MONCKS CORNER FAIR 64 61 88 SW7 29.97S SUMMERVILLE FAIR 63 61 94 S3 29.98S BEAUFORT MCAS CLEAR 60 58 92 S5 29.99S BEAUFORT ARPT PTSUNNY 59 59 100 CALM 29.99S HILTON HEAD IS PTCLDY 61 61 100 S6 30.01S WALTERBORO SUNNY 63 63 100 S7 29.97F ALLENDALE FAIR 64 63 94 CALM 29.96S ...SOUTHERN MIDLANDS AND PEE DEE... CITY SKY/WX TMP DP RH WIND PRES REMARKS GEORGETOWN NOT AVBL KINGSTREE NOT AVBL ORANGEBURG CLEAR 63 58 83 SW7 29.95F BARNWELL CLOUDY 66 63 88 SW9 29.96S AIKEN PTSUNNY 66 63 88 SW13G22 29.96F MANNING FAIR 63 63 100 S5 29.95S COLUMBIA PTCLDY 67 60 78 SW12 29.90F SUMTER CLEAR 65 60 85 SW14 29.91F FLORENCE PTCLDY 65 60 84 S9 29.93S MYRTLE BEACH CLEAR 63 57 82 S6 29.98S N MYRTLE BEACH CLOUDY 58 57 97 SW16 29.96S FOG $$ GAZ063-065-086>088-099>101-113>116-118-119-134>141-150-051000- ...SOUTHEAST GEORGIA... CITY SKY/WX TMP DP RH WIND PRES REMARKS SAVANNAH ARPT CLEAR 62 59 90 S8 30.00S HUNTER AAF CLOUDY 64 64 100 VRB6 29.98F FORT STEWART CLOUDY 65 63 92 S6 29.98S STATESBORO CLEAR 66 66 100 SW3 29.97F SYLVANIA SUNNY 66 65 94 SW5 29.98F CLAXTON FAIR 64 64 100 SW3 29.98F ...CSRA...CENTRAL AND FAR SOUTHEAST GEORGIA... CITY SKY/WX TMP DP RH WIND PRES REMARKS THOMSON PTCLDY 69 66 92 S7 29.96S AUGUSTA-BUSH CLOUDY 67 62 84 SW9 29.94F AUGUSTA-DANIEL PTCLDY 68 62 81 SW14 29.93F SWAINSBORO CLOUDY 70 64 83 SW5 29.97F VIDALIA CLEAR 64 64 100 SW6 29.98F EASTMAN CLOUDY 69 69 100 SW7 29.99F HAZLEHURST FAIR 68 67 99 S7 29.97F ALMA PTCLDY 65 63 93 CALM 30.00F WAYCROSS CLOUDY 71 69 93 SW7 30.01S JESUP CLOUDY 70 68 94 SW5 30.01S BAXLEY FAIR 66 64 94 SW3 29.99S BRUNSWICK CLOUDY 68 64 88 SW7 30.04S SAINT SIMONS CLOUDY 64 62 93 SW7 30.03F $$ SCZ027-028-034-036>038-045-046-048>050-GAZ119-141-051000- ...LAKE AND SUPPLEMENTAL COASTAL OBSERVATIONS... STATION/POSITION TIME TEMP WIND PRES WAVE SWELL AIR SEA DIR/SP/G HT/PER HT/PER/DIR (UTC) (F) (DEG/KT/KT) (MB) (FT/S) (FT/S/D) UPR LAKE MARION NOT AVBL WINYAH BAY NOT AVBL LAKE MURRAY 0800 63 220/ 11/ 14 1012.5F ACE BASIN NERRS NOT AVBL FORT PULASKI 0800 58 52 190/ 4/ 7 1016.6 SAPELO ISLAND 0800 60 170/ 5 1017.0S $$ ANZ835-935-AMZ111-154-330-350-352-354-370-450-454-472-051000- ...C-MAN AND BUOY OBSERVATIONS... STATION/POSITION TIME TEMP WIND PRES WAVE SWELL AIR SEA DIR/SP/G HT/PER HT/PER/DIR (UTC) (F) (DEG/KT/KT) (MB) (FT/S) (FT/S/D) BUOY 41004 0850 70 69 210/ 19/ 23 1015.3F 6/ 7 3/ 8 BUOY 41008 0850 58 54 200/ 10/ 12 1016.8F 4/ 6 3/120/ 6 FOLLY BEACH CMAN 0900 54 220/ 9/ 11 1016.0F CAPERS NEARSHORE 0800 52 230/ 8/ 10 N/A FRIPP NEARSHORE 0800 55 190/ 14/ 17 1015.9F STATION/POSITION TIME TEMP WIND PRES WAVE SWELL AIR SEA DIR/SP/G HT/PER HT/PER/DIR (UTC) (F) (DEG/KT/KT) (MB) (FT/S) (FT/S/D) 5E ST. MARYS GA 0821 55 N/A 3/ 6 FRYING PAN BUOY 0850 68 62 210/ 16/ 17 1015.8F 7/ 7 BUOY 41025 NOT AVBL CAPE LOOKOUT NC 0800 59 220/ 9/ 12 1015.0F BUOY 41002 0850 73 73 220/ 21/ 25 1019.4S 6/10 3/140/10 BUOY 41010 0820 74 75 170/ 17/ 21 1018.7F ST AUGUSTINE FL 0900 59 180/ 8/ 9 1017.8F $$

USA.gov is the U.S. government's official web portal to all federal, state and local government web resources and services.